This is the latest recevied weather packets stored in our database for station/object EA1IDU-12. If no packets are shown the sender has not sent any weather packets the latest 10 day(s).
| Time | Temp. | Humidity | Pressure | Rain* | Wind** | Luminosity | Snow |
|---|---|---|---|---|---|---|---|
| 1788378910 | 21.11° C | 40% | 1033.1 hPa | - | - | - | - |
| 1788378010 | 21.11° C | 38% | 1032.8 hPa | - | - | - | - |
| 1788377110 | 21.67° C | 36% | 1032.7 hPa | - | - | - | - |
| 1788376210 | 22.78° C | 35% | 1032.4 hPa | - | - | - | - |
| 1788375310 | 23.89° C | 34% | 1032.2 hPa | - | - | - | - |
| 1788374409 | 25° C | 32% | 1031.7 hPa | - | - | - | - |
| 1788373509 | 26.11° C | 30% | 1031.6 hPa | - | - | - | - |
| 1788372609 | 27.22° C | 28% | 1031.4 hPa | - | - | - | - |
| 1788371709 | 30° C | 26% | 1031.2 hPa | - | - | - | - |
| 1788370809 | 31.67° C | 22% | 1031.1 hPa | - | - | - | - |
| 1788369908 | 34.44° C | 17% | 1030.9 hPa | - | - | - | - |
| 1788369008 | 34.44° C | 17% | 1031 hPa | - | - | - | - |
| 1788368265 | 35° C | 16% | 1031 hPa | - | - | - | - |
| 1788367207 | 35° C | 17% | 1030.9 hPa | - | - | - | - |
| 1788366307 | 35.56° C | 17% | 1030.9 hPa | - | - | - | - |
| 1788365407 | 35.56° C | 18% | 1031 hPa | - | - | - | - |
| 1788364506 | 35.56° C | 17% | 1031.1 hPa | - | - | - | - |
| 1788363606 | 35.56° C | 18% | 1031.1 hPa | - | - | - | - |
| 1788362706 | 35.56° C | 18% | 1031 hPa | - | - | - | - |
| 1788361806 | 35.56° C | 18% | 1031.1 hPa | - | - | - | - |
| 1788360906 | 35.56° C | 18% | 1031.2 hPa | - | - | - | - |
| 1788360006 | 35.56° C | 20% | 1031.3 hPa | - | - | - | - |
| 1788359105 | 35° C | 20% | 1031.3 hPa | - | - | - | - |
| 1788358205 | 35.56° C | 22% | 1031.4 hPa | - | - | - | - |
| 1788357305 | 35° C | 23% | 1031.6 hPa | - | - | - | - |
* Rain since midnight (hover to see other rain measurements)
** Current wind speed in m/s (hover to see current wind gust speed)